SCP
0 0 0 0 0 0 0 0 0 0 0 0 0 0 0 0 0 0 0 0 0 0 0 0 0 0 0 0 0 0 0 0
0 0 0 0 0 0 0 0 0 0 0 0 0 0 0 0 0 0 0 0 0 0 0 0 0 0 0 0 0 0 0 0
0 0 0 0 0 0 0 0 0 0 0 0 0 0 0 0 0 0 0 0 0 0 0 0 0 0 0 0 0 0 0 0
0 0 0 0 0 0 0 0 0 0 0 0 0 0 0 0 0 0 0 0 0 -0 -0 0 0 0 0 0 0 0 0 0
-0 0 0 0 0 0 0 0 -0 0 0 0 0 0 0 0 0 0 -0 -0 -0 0 0 0 0 0 0 0 0 0 0 0
0 0 0 0 0 0 0 0 0 0 0 0 0 0 0 0 0 0 -0 0 0 0 0 0 0 0 0 0 0 0 0 0
0 0 0 0 0 0 0 0 0 0 0 0 0 0 0 0 0 0 0 0 0 0 0 0 0 0 0 0 0 0 0 0
0 0 0 0 0 0 0 0 0 -0 0 0 0 0 0 0 0 0 0 0 0 0 0 0 0 0 0 0 0 0 0 0
-0 0 0 0 0 0 0 0 0 0 0 0 0 0 0 0 0 0 0 0 0 0 0 0 0 0 0 0 0 0 0 0
0 0 0 0 0 0 0 0 0 0 0 0 0 0 0 0 0 0 0 0 0 0 0 0 0 0 0 0 0 0 0 0
0 0 0 0 0 0 0 0 0 0 0 0 0 0 0 0 0 0 0 0 0 0 0 0 0 0 0 0 0 0 0 0
0 0 0 0 0 0 0 0 0 -0 0 0 0 0 0 0 0 0 0 0 0 0 0 0 0 0 0 0 0 0 0 0
0 0 0 0 0 0 0 0 0 0 0 0 0 0 0 0 0 0 0 0 0 0 -0 -0 -0 0 0 0 0 0 0 0
0 0 0 0 0 0 0 0 0 0 0 0 0 0 0 0 0 0 0 0 0 0 -0 -0 -0 0 0 0 0 -0 -0 0
0 0 0 0 0 0 0 0 0 0 0 0 0 0 0 0 0 0 0 0 0 0 -0 -0 0 0 0 0 0 0 0 0
0 0 0 0 0 0 0 0 0 0 0 0 0 0 0 0 0 0 0 0 0 0 0 0 0 0 0 0 0 0 0 0
0 0 0 0 0 0 0 0 0 0 0 0 0 0 0 0 0 0 0 0 0 0 0 0 0 0 0 0 0 0 0 0
0 0 0 0 0 0 0 0 0 0 0 0 0 0 0 0 0 0 0 0 0 0 0 0 0 0 0 0 0 0 0 0
0 0 0 0 0 0 0 0 0 0 0 0 0 0 0 0 0 0 0 0 0 0 0 0 0 0 -0 0 0 0 0 0
0 0 0 0 0 0 0 0 0 0 0 0 0 0 0 0 0 0 0 0 0 0 0 0 0 0 0 0 0 0 0 0
Wind_Speed_500mb
44 35 28 30 23 15 13 16 18 18 20 18 21 25 19 21 25 28 32 32 33 36 32 32 22 24 29 24 18 16 15 18
38 40 33 21 9 13 13 16 24 31 33 33 29 23 27 28 30 28 33 36 35 32 33 40 42 33 25 23 22 22 24 19
34 26 19 12 10 8 14 24 28 30 33 36 33 25 26 28 28 24 28 33 39 39 40 42 48 46 40 30 29 34 33 32
35 27 19 5 9 15 17 25 30 40 46 36 9 10 11 20 24 30 32 36 44 55 59 48 39 45 45 39 34 28 28 39
30 24 13 5 6 9 18 29 43 53 30 12 18 11 16 18 23 29 39 47 52 44 35 26 21 28 29 30 33 38 41 44
33 27 15 11 2 8 20 35 54 42 19 17 15 14 8 15 24 32 41 39 25 28 31 31 21 25 28 27 32 36 42 46
40 32 19 10 5 14 31 39 48 40 30 26 24 22 21 23 28 33 34 29 31 32 30 32 29 28 25 26 29 36 47 46
43 30 20 12 10 27 32 39 38 43 31 23 14 8 14 18 24 33 25 29 34 32 31 32 33 30 25 28 33 27 23 27
36 28 19 7 14 31 32 33 31 39 31 22 23 22 21 18 22 25 24 28 32 35 31 32 35 29 27 25 27 29 28 27
38 28 15 11 14 23 25 23 25 33 29 22 24 26 25 18 14 22 23 28 35 34 31 35 39 34 27 22 21 27 29 22
37 27 17 12 14 16 20 20 23 34 29 26 28 21 22 18 17 19 20 26 30 32 34 38 36 40 33 23 18 18 21 13
35 25 23 13 13 16 18 25 29 41 30 31 30 29 29 22 23 20 20 22 25 30 34 34 36 39 31 23 17 15 20 23
36 24 17 16 14 13 29 30 35 34 26 26 31 29 27 18 19 19 19 18 24 28 32 35 33 35 32 21 11 14 21 23
37 20 23 18 17 22 18 21 30 17 21 23 30 27 31 24 22 13 14 21 24 20 27 29 27 27 31 30 25 19 17 15
27 25 24 17 19 12 14 19 27 16 17 22 28 30 29 28 15 13 18 25 23 20 23 23 24 30 29 32 25 25 20 7
19 25 21 17 11 14 14 26 21 10 13 19 24 30 29 21 17 15 23 25 24 16 19 19 18 22 26 29 30 23 21 17
26 27 21 16 15 19 23 21 8 4 11 21 25 28 23 13 16 18 22 25 15 11 18 17 16 19 21 26 27 26 23 32
32 26 23 22 19 21 19 14 5 5 14 19 26 24 18 12 14 15 21 25 4 12 14 17 18 22 23 26 24 27 29 23
34 27 21 19 17 15 12 16 6 8 14 20 23 20 16 20 25 26 32 12 12 9 9 15 21 25 23 22 19 21 19 23
28 24 23 20 17 14 13 13 8 10 15 16 16 15 19 22 25 24 31 27 29 16 7 8 9 13 18 20 20 19 16 10
Wind_Direction_500mb
131 119 126 120 110 78 31 10 358 341 338 316 290 290 304 313 311 305 305 313 315 309 299 279 285 282 266 260 257 268 294 280
138 121 121 120 84 28 12 350 329 328 332 333 327 303 289 306 312 310 305 313 321 316 302 295 281 273 265 251 257 266 275 276
139 130 126 113 58 32 333 324 325 327 326 323 319 313 309 309 313 319 318 316 313 309 302 294 290 281 272 262 244 262 258 249
137 136 125 57 357 328 316 323 330 326 317 319 333 3 340 322 330 325 323 320 317 315 311 301 287 278 273 264 257 250 238 243
152 151 151 241 250 295 317 326 325 324 325 327 337 350 323 322 320 326 325 323 320 324 345 337 312 288 279 266 262 260 259 248
166 178 203 206 292 297 336 343 345 340 318 318 328 328 335 328 336 333 327 328 347 349 346 348 324 304 286 280 279 268 266 268
185 184 192 182 277 333 347 350 355 2 346 322 299 289 300 309 326 333 333 345 350 350 349 342 325 316 291 273 274 280 262 267
175 184 182 209 329 350 351 347 341 2 358 1 18 1 314 318 328 336 353 351 358 349 338 342 336 326 305 282 273 277 277 272
189 190 184 248 336 351 340 330 341 354 358 2 10 12 358 335 347 355 349 360 4 356 0 353 345 332 331 310 285 282 272 285
186 190 204 262 326 338 329 328 342 360 360 357 348 351 357 353 344 343 352 2 3 359 358 354 353 352 331 323 303 289 287 284
193 193 217 244 287 312 320 324 341 359 2 351 345 341 349 340 345 348 348 1 359 358 357 351 349 347 336 311 306 305 301 298
203 210 208 247 265 282 332 339 351 353 354 360 354 353 343 340 331 333 334 343 350 351 353 355 353 353 344 332 287 295 296 302
212 210 220 234 239 292 333 345 345 355 357 360 4 3 345 326 323 331 325 331 340 346 354 357 358 2 13 1 333 292 289 291
201 216 221 224 266 316 316 346 355 5 1 5 4 355 354 342 338 344 345 345 337 345 359 3 18 23 17 17 16 348 308 293
188 187 203 245 287 288 323 351 351 357 10 357 351 343 344 345 355 346 343 351 354 347 2 15 29 27 24 19 13 17 27 18
188 202 224 267 265 298 318 331 338 345 355 345 342 337 331 342 352 345 347 346 344 342 13 22 22 33 30 29 32 33 32 44
202 216 231 268 298 295 296 315 308 346 324 345 347 340 333 314 342 352 349 346 340 10 21 35 43 33 27 31 37 39 51 54
214 216 243 266 269 286 295 325 325 299 342 341 353 354 8 7 353 346 349 338 68 20 48 48 42 22 31 39 54 48 52 56
212 222 254 254 269 277 295 315 273 288 346 342 3 8 42 44 35 32 22 49 36 23 43 48 31 32 32 40 47 50 43 48
222 248 243 244 239 264 271 301 225 319 336 329 359 20 43 35 23 29 38 31 25 2 341 30 34 30 35 41 52 69 50 24
Wind_Speed_850mb
44 35 28 30 23 15 13 16 18 18 20 18 21 25 19 21 25 28 32 32 33 36 32 32 22 24 29 24 18 16 15 18
38 40 33 21 9 13 13 16 24 31 33 33 29 23 27 28 30 28 33 36 35 32 33 40 42 33 25 23 22 22 24 19
34 26 19 12 10 8 14 24 28 30 33 36 33 25 26 28 28 24 28 33 39 39 40 42 48 46 40 30 29 34 33 32
35 27 19 5 9 15 17 25 30 40 46 36 9 10 11 20 24 30 32 36 44 55 59 48 39 45 45 39 34 28 28 39
30 24 13 5 6 9 18 29 43 53 30 12 18 11 16 18 23 29 39 47 52 44 35 26 21 28 29 30 33 38 41 44
33 27 15 11 2 8 20 35 54 42 19 17 15 14 8 15 24 32 41 39 25 28 31 31 21 25 28 27 32 36 42 46
40 32 19 10 5 14 31 39 48 40 30 26 24 22 21 23 28 33 34 29 31 32 30 32 29 28 25 26 29 36 47 46
43 30 20 12 10 27 32 39 38 43 31 23 14 8 14 18 24 33 25 29 34 32 31 32 33 30 25 28 33 27 23 27
36 28 19 7 14 31 32 33 31 39 31 22 23 22 21 18 22 25 24 28 32 35 31 32 35 29 27 25 27 29 28 27
38 28 15 11 14 23 25 23 25 33 29 22 24 26 25 18 14 22 23 28 35 34 31 35 39 34 27 22 21 27 29 22
37 27 17 12 14 16 20 20 23 34 29 26 28 21 22 18 17 19 20 26 30 32 34 38 36 40 33 23 18 18 21 13
35 25 23 13 13 16 18 25 29 41 30 31 30 29 29 22 23 20 20 22 25 30 34 34 36 39 31 23 17 15 20 23
36 24 17 16 14 13 29 30 35 34 26 26 31 29 27 18 19 19 19 18 24 28 32 35 33 35 32 21 11 14 21 23
37 20 23 18 17 22 18 21 30 17 21 23 30 27 31 24 22 13 14 21 24 20 27 29 27 27 31 30 25 19 17 15
27 25 24 17 19 12 14 19 27 16 17 22 28 30 29 28 15 13 18 25 23 20 23 23 24 30 29 32 25 25 20 7
19 25 21 17 11 14 14 26 21 10 13 19 24 30 29 21 17 15 23 25 24 16 19 19 18 22 26 29 30 23 21 17
26 27 21 16 15 19 23 21 8 4 11 21 25 28 23 13 16 18 22 25 15 11 18 17 16 19 21 26 27 26 23 32
32 26 23 22 19 21 19 14 5 5 14 19 26 24 18 12 14 15 21 25 4 12 14 17 18 22 23 26 24 27 29 23
34 27 21 19 17 15 12 16 6 8 14 20 23 20 16 20 25 26 32 12 12 9 9 15 21 25 23 22 19 21 19 23
28 24 23 20 17 14 13 13 8 10 15 16 16 15 19 22 25 24 31 27 29 16 7 8 9 13 18 20 20 19 16 10
Wind_Direction_850mb
131 119 126 120 110 78 31 10 358 341 338 316 290 290 304 313 311 305 305 313 315 309 299 279 285 282 266 260 257 268 294 280
138 121 121 120 84 28 12 350 329 328 332 333 327 303 289 306 312 310 305 313 321 316 302 295 281 273 265 251 257 266 275 276
139 130 126 113 58 32 333 324 325 327 326 323 319 313 309 309 313 319 318 316 313 309 302 294 290 281 272 262 244 262 258 249
137 136 125 57 357 328 316 323 330 326 317 319 333 3 340 322 330 325 323 320 317 315 311 301 287 278 273 264 257 250 238 243
152 151 151 241 250 295 317 326 325 324 325 327 337 350 323 322 320 326 325 323 320 324 345 337 312 288 279 266 262 260 259 248
166 178 203 206 292 297 336 343 345 340 318 318 328 328 335 328 336 333 327 328 347 349 346 348 324 304 286 280 279 268 266 268
185 184 192 182 277 333 347 350 355 2 346 322 299 289 300 309 326 333 333 345 350 350 349 342 325 316 291 273 274 280 262 267
175 184 182 209 329 350 351 347 341 2 358 1 18 1 314 318 328 336 353 351 358 349 338 342 336 326 305 282 273 277 277 272
189 190 184 248 336 351 340 330 341 354 358 2 10 12 358 335 347 355 349 360 4 356 0 353 345 332 331 310 285 282 272 285
186 190 204 262 326 338 329 328 342 360 360 357 348 351 357 353 344 343 352 2 3 359 358 354 353 352 331 323 303 289 287 284
193 193 217 244 287 312 320 324 341 359 2 351 345 341 349 340 345 348 348 1 359 358 357 351 349 347 336 311 306 305 301 298
203 210 208 247 265 282 332 339 351 353 354 360 354 353 343 340 331 333 334 343 350 351 353 355 353 353 344 332 287 295 296 302
212 210 220 234 239 292 333 345 345 355 357 360 4 3 345 326 323 331 325 331 340 346 354 357 358 2 13 1 333 292 289 291
201 216 221 224 266 316 316 346 355 5 1 5 4 355 354 342 338 344 345 345 337 345 359 3 18 23 17 17 16 348 308 293
188 187 203 245 287 288 323 351 351 357 10 357 351 343 344 345 355 346 343 351 354 347 2 15 29 27 24 19 13 17 27 18
188 202 224 267 265 298 318 331 338 345 355 345 342 337 331 342 352 345 347 346 344 342 13 22 22 33 30 29 32 33 32 44
202 216 231 268 298 295 296 315 308 346 324 345 347 340 333 314 342 352 349 346 340 10 21 35 43 33 27 31 37 39 51 54
214 216 243 266 269 286 295 325 325 299 342 341 353 354 8 7 353 346 349 338 68 20 48 48 42 22 31 39 54 48 52 56
212 222 254 254 269 277 295 315 273 288 346 342 3 8 42 44 35 32 22 49 36 23 43 48 31 32 32 40 47 50 43 48
222 248 243 244 239 264 271 301 225 319 336 329 359 20 43 35 23 29 38 31 25 2 341 30 34 30 35 41 52 69 50 24